This is the latest recevied weather packets stored in our database for station/object DG4MND-4. If no packets are shown the sender has not sent any weather packets the latest 10 day(s).
| Time | Temp. | Humidity | Pressure | Rain* | Wind** | Luminosity | Snow |
|---|---|---|---|---|---|---|---|
| 1777938063 | 11.11° C | 80% | 1011.3 hPa | 0 mm | - | - | - |
| 1777937460 | 11.11° C | 79% | 1011.3 hPa | 0 mm | - | - | - |
| 1777936859 | 11.11° C | 80% | 1011.5 hPa | 0 mm | - | - | - |
| 1777936256 | 11.67° C | 81% | 1011.5 hPa | 0 mm | - | - | - |
| 1777935650 | 11.67° C | 81% | 1011.4 hPa | 0 mm | - | - | - |
| 1777935049 | 12.22° C | 82% | 1011.7 hPa | 0 mm | - | - | - |
| 1777934446 | 12.22° C | 82% | 1011.6 hPa | 0 mm | - | - | - |
| 1777933839 | 12.78° C | 81% | 1011.7 hPa | 0 mm | - | - | - |
| 1777933239 | 12.78° C | 79% | 1011.7 hPa | 0 mm | - | - | - |
| 1777932635 | 13.33° C | 77% | 1011.8 hPa | 0 mm | - | - | - |
| 1777932029 | 13.89° C | 75% | 1011.7 hPa | 0 mm | - | - | - |
| 1777931429 | 14.44° C | 74% | 1011.8 hPa | 0 mm | - | - | - |
| 1777930822 | 14.44° C | 73% | 1011.9 hPa | 0 mm | - | - | - |
| 1777930222 | 14.44° C | 72% | 1011.9 hPa | 0 mm | - | - | - |
| 1777929615 | 13.89° C | 72% | 1011.8 hPa | 0 mm | - | - | - |
| 1777929074 | 14.44° C | 71% | 1011.9 hPa | 0 mm | - | - | - |
| 1777928469 | 15° C | 68% | 1011.9 hPa | 0 mm | - | - | - |
| 1777927866 | 15.56° C | 66% | 1011.9 hPa | 0 mm | - | - | - |
| 1777927265 | 15.56° C | 63% | 1011.8 hPa | 0 mm | - | - | - |
| 1777926658 | 16.11° C | 61% | 1011.9 hPa | 0 mm | - | - | - |
| 1777926055 | 16.67° C | 57% | 1011.8 hPa | 0 mm | - | - | - |
| 1777925451 | 16.67° C | 53% | 1011.7 hPa | 0 mm | - | - | - |
| 1777924850 | 16.67° C | 53% | 1011.7 hPa | 0 mm | - | - | - |
| 1777924244 | 17.22° C | 52% | 1011.8 hPa | 0 mm | - | - | - |
| 1777923644 | 17.78° C | 50% | 1011.7 hPa | 0 mm | - | - | - |
* Rain latest hour (hover to see other rain measurements)
** Current wind speed in m/s (hover to see current wind gust speed)